Dewpoint
65 65 66 65 67 66 66 66 66 66 66 67 68 67 67 68 67 67 68 67 67 67 67 67 67 67 67 69 70 71 71 71 72 72 71 72 72 72 72 72 72 72 72 72 73 73 72 70 71 71 70 69 68 67 67 67 67 66 65 64 64 65 67 66 65 65 66 70 68 69 70 71 72 73 73 74 74 74 75 75 74 74 74 75 75
65 65 65 66 66 66 65 65 66 67 67 67 68 67 67 67 67 68 67 67 68 67 67 67 67 68 68 68 69 69 69 70 71 71 71 71 71 72 72 72 71 71 71 71 71 72 72 72 71 71 70 69 68 67 67 67 67 67 65 64 63 64 65 66 65 65 64 67 69 70 71 73 70 73 73 74 74 75 74 74 74 74 74 74 74
65 65 66 66 65 65 65 66 67 67 67 66 66 66 66 66 68 66 66 67 68 67 67 67 68 68 68 68 68 67 68 69 70 71 71 71 71 72 72 71 71 71 70 70 71 71 72 72 72 71 71 69 69 69 69 68 68 67 67 66 64 63 64 66 66 65 65 66 69 69 69 73 71 72 74 74 74 74 74 73 74 75 75 74 74
65 66 66 65 65 65 65 66 66 66 65 65 65 65 65 66 67 67 67 67 67 67 68 68 68 67 67 67 68 68 68 68 69 70 71 71 71 71 71 71 71 71 71 71 71 71 71 71 71 71 71 70 70 69 69 69 69 68 67 67 66 64 63 66 68 66 66 66 68 69 70 71 73 73 74 74 74 74 74 74 74 74 75 75 75
65 66 66 65 64 65 65 65 65 65 65 64 64 65 65 66 66 67 67 67 67 67 68 68 68 67 67 67 67 68 68 68 68 69 70 70 70 70 70 70 71 71 71 71 72 71 71 71 71 71 70 70 70 70 70 69 69 69 68 67 66 65 64 65 67 68 67 66 66 70 70 71 72 72 74 73 73 74 74 74 74 73 74 75 76
66 65 65 64 64 64 64 65 64 64 64 65 65 65 66 66 66 67 67 67 67 67 67 67 68 68 68 68 68 68 68 68 69 69 70 70 70 70 70 70 71 71 72 72 72 72 71 71 71 71 70 69 69 70 70 70 70 69 68 68 67 66 65 63 65 67 67 66 66 68 70 70 71 72 73 73 73 72 72 72 72 73 74 74 74
66 65 64 64 64 64 64 64 64 64 64 64 65 66 66 66 66 66 67 67 67 67 67 67 68 68 67 68 68 68 68 68 68 69 69 70 70 70 70 70 70 71 71 71 71 72 71 71 71 71 70 70 70 70 70 70 70 70 70 69 68 67 66 65 65 65 66 67 67 67 69 70 71 71 72 73 72 72 71 70 70 71 72 73 73
64 64 64 64 64 64 64 64 64 64 65 65 65 65 66 66 66 66 67 66 66 66 66 67 67 67 67 67 68 68 68 68 68 68 69 69 70 69 69 70 70 70 71 71 71 71 71 71 71 71 71 71 71 71 71 71 70 70 70 69 68 68 67 68 68 67 66 67 67 67 69 69 71 72 72 71 69 69 70 70 69 69 70 72 73
64 64 64 64 64 64 64 64 65 65 65 65 65 65 65 65 66 66 66 66 67 66 67 67 67 66 67 67 67 67 68 68 68 68 68 69 70 70 70 70 70 70 70 70 71 71 71 71 71 71 72 73 73 73 73 73 71 70 70 70 69 68 68 67 68 69 69 68 67 68 69 69 71 70 70 70 70 69 70 70 69 70 70 71 72
64 63 63 64 64 64 64 64 65 65 65 64 64 64 65 65 65 65 65 65 65 66 66 67 67 66 66 66 66 67 67 68 70 70 70 70 69 69 69 69 69 69 70 70 70 71 71 71 71 73 73 73 74 74 74 74 74 72 71 69 70 70 69 67 67 67 69 69 68 68 68 69 70 70 70 70 70 70 70 70 69 70 69 71 71
63 63 64 64 64 64 64 64 64 64 64 64 64 64 64 64 64 64 64 65 65 65 66 66 66 65 65 65 66 66 67 68 70 69 69 69 70 69 69 69 69 69 69 69 69 70 70 70 70 72 72 73 73 73 73 74 74 74 73 73 73 70 69 69 68 68 68 68 70 68 69 69 70 71 70 70 70 70 70 70 70 69 69 68 68
63 63 64 64 64 63 64 63 63 63 63 63 63 63 64 64 64 64 64 64 65 66 65 65 65 65 65 66 66 66 66 69 67 67 68 68 69 69 69 69 69 69 69 69 69 70 70 70 70 71 71 71 71 71 72 73 73 73 73 73 73 73 73 71 69 68 68 68 68 66 66 69 70 71 71 70 69 69 70 70 69 69 69 69 68
63 63 64 64 64 63 63 63 63 63 63 63 63 64 63 63 63 63 63 64 65 65 65 64 64 65 65 65 65 66 66 68 66 67 66 66 67 69 68 68 68 69 69 69 69 69 69 70 70 70 70 72 73 72 71 71 72 73 73 72 73 73 70 70 72 71 69 68 68 68 67 67 67 71 72 71 71 69 70 70 70 69 69 69 69
63 64 64 63 63 63 63 63 62 62 62 62 63 63 63 63 63 63 64 65 64 64 64 64 64 64 65 65 66 66 66 68 66 66 65 65 66 67 67 67 67 68 68 69 69 69 69 69 69 69 69 70 70 71 71 71 71 71 71 71 71 72 72 71 71 72 73 70 69 68 69 68 67 68 71 72 71 70 70 69 70 70 69 69 70
63 62 62 63 63 63 63 62 62 62 62 62 62 62 62 62 62 63 63 63 64 64 64 64 64 65 65 65 65 65 66 66 65 65 63 63 64 67 66 66 66 67 68 68 69 69 69 69 69 69 69 69 70 70 70 70 70 70 71 70 71 71 71 71 72 72 72 72 71 70 69 70 69 69 68 72 72 71 71 70 70 70 70 69 69
62 63 63 63 63 63 62 62 62 62 62 62 61 61 61 61 61 62 64 64 64 64 64 64 64 64 64 65 65 64 65 64 63 63 62 62 64 66 66 66 66 67 67 68 68 69 69 69 69 69 69 69 71 71 71 71 71 70 70 70 71 71 71 72 70 71 73 72 72 70 70 70 70 71 71 71 71 71 73 71 71 69 69 69 69
62 62 64 63 63 63 62 62 62 61 61 61 61 61 61 61 61 62 62 62 62 63 63 63 64 64 64 65 65 64 64 64 63 62 62 62 64 65 65 65 66 66 66 67 68 68 68 69 69 69 69 69 69 66 68 71 70 70 70 70 70 70 70 71 69 68 68 68 68 68 68 67 66 66 66 69 71 71 70 69 69 70 69 68 69
62 63 63 63 63 63 62 62 62 62 61 61 60 61 61 61 61 62 62 61 62 62 63 63 63 64 65 64 64 64 64 66 63 62 61 61 65 65 65 65 65 65 66 66 67 68 68 70 71 70 69 69 68 66 66 69 69 69 69 68 67 67 68 69 69 70 67 66 66 66 67 67 67 67 66 66 67 70 70 69 69 70 69 69 68
62 62 62 62 63 63 62 62 62 61 61 61 61 60 60 61 61 62 62 62 63 63 63 62 62 63 64 64 66 66 65 66 63 62 61 61 64 65 65 65 64 65 65 66 66 67 67 69 69 70 69 69 65 64 65 69 68 67 67 67 67 67 67 68 68 68 69 69 69 69 69 70 71 70 70 69 69 71 71 70 70 70 70 69 69
62 63 63 62 62 63 62 63 63 62 61 61 61 61 61 61 61 61 61 61 61 61 61 62 62 63 64 64 64 65 65 65 65 62 61 61 61 65 64 64 64 64 64 65 65 66 67 67 69 67 64 63 62 62 63 63 67 68 68 67 67 67 68 68 69 69 69 69 70 70 70 70 70 70 71 70 70 71 71 71 71 71 70 70 70
63 63 62 62 62 62 62 62 61 61 61 60 61 61 62 61 61 60 60 60 60 61 61 62 63 63 63 64 64 64 65 65 66 62 61 60 61 63 64 64 64 64 64 65 65 65 66 67 67 68 63 61 60 59 59 60 64 67 68 68 68 69 69 68 69 71 69 70 70 70 70 70 70 70 70 69 69 70 71 70 71 72 71 71 70
62 61 61 61 62 62 61 61 61 61 61 61 61 60 60 60 60 59 60 60 60 61 61 62 62 62 62 63 64 64 65 67 66 64 62 60 60 60 64 64 65 64 64 64 65 66 66 67 67 67 63 61 60 58 57 57 59 65 68 64 64 65 69 69 68 69 70 70 70 70 70 70 70 70 70 69 70 70 70 71 71 72 72 72 71
61 61 61 61 61 61 61 61 61 61 61 61 60 59 59 59 59 60 60 60 60 60 60 60 60 60 61 62 63 63 63 64 66 66 63 60 59 59 59 62 62 65 64 64 64 65 65 66 67 67 62 58 55 55 56 57 60 62 60 60 61 63 68 69 69 69 69 69 69 69 69 70 70 70 70 70 70 70 70 71 71 72 72 72 72
61 61 61 61 60 61 61 61 60 59 59 60 59 59 58 58 58 58 58 58 58 58 58 59 59 59 60 60 61 62 62 63 65 65 64 62 59 58 58 57 58 61 63 64 64 65 65 65 66 61 58 54 54 55 56 59 61 58 57 59 60 64 67 68 68 68 69 68 68 68 69 70 70 70 70 70 71 71 71 71 71 71 72 72 72
61 60 60 60 60 60 59 58 58 59 59 59 58 58 57 57 57 57 58 57 57 57 58 59 58 58 59 59 58 59 60 61 61 63 64 64 61 59 59 59 58 56 60 62 63 64 62 59 58 57 56 56 55 56 57 60 57 57 57 59 65 65 65 66 67 67 67 67 68 69 69 69 70 70 70 70 70 71 72 72 72 72 72 72 72
60 60 60 60 59 58 58 58 58 58 59 58 57 57 57 57 57 57 57 58 58 58 58 58 58 58 58 57 57 57 58 58 59 60 64 65 65 62 61 61 64 62 62 62 64 62 60 58 57 57 58 59 62 63 64 64 63 61 61 63 63 64 65 65 66 66 66 66 67 67 69 69 70 70 71 70 70 69 70 71 71 71 72 71 71
61 60 59 59 58 58 58 57 58 59 58 57 56 57 57 57 57 58 58 57 57 58 57 58 58 58 57 57 57 58 58 58 58 59 60 61 62 63 64 64 66 66 65 64 64 64 64 64 63 61 61 63 64 66 66 66 66 67 67 65 63 63 65 65 66 66 66 66 66 67 68 69 70 69 69 69 69 70 70 70 70 70 71 71 70
60 59 59 59 59 58 58 61 61 58 57 57 57 57 57 58 58 58 58 58 57 57 57 58 58 57 57 57 57 57 57 58 58 59 60 61 61 62 63 64 63 63 62 62 63 64 64 64 63 64 64 64 64 65 65 65 66 66 67 66 65 65 66 67 68 67 67 67 67 67 68 68 68 69 69 69 69 70 70 70 69 69 70 70 68
60 59 59 59 58 59 59 59 58 58 57 57 58 58 58 58 58 59 59 59 58 58 58 58 59 58 57 57 57 57 57 58 58 57 63 59 61 61 61 62 63 63 65 63 64 63 63 62 62 63 63 63 63 63 64 64 65 66 67 67 66 65 65 65 66 66 66 67 67 67 67 68 68 69 69 69 69 70 70 70 70 70 69 69 68
59 59 59 59 59 59 59 59 58 58 58 58 58 58 60 57 57 58 58 60 58 55 54 57 57 57 57 57 58 57 57 58 57 52 50 49 49 49 52 52 54 60 61 58 61 61 61 61 61 61 62 63 63 63 64 64 65 66 66 66 67 67 66 66 66 67 67 67 67 67 68 68 68 68 68 68 69 69 69 68 70 70 69 68 67
59 59 59 59 60 61 60 58 58 58 58 58 58 58 58 58 53 53 54 57 55 51 49 49 50 51 56 56 57 56 55 53 50 49 48 47 47 46 45 45 46 47 49 55 58 60 61 61 61 62 62 63 63 63 64 64 64 65 66 66 67 67 67 67 67 67 67 67 67 68 68 68 68 68 68 68 68 69 69 69 69 69 69 68 68
58 58 58 59 60 61 58 58 59 58 58 57 57 58 58 57 57 54 52 53 52 50 49 48 48 48 50 52 55 56 54 52 49 48 48 47 46 45 44 44 44 44 46 50 56 59 60 60 61 61 61 62 63 64 64 64 64 64 65 65 66 67 67 67 67 68 67 67 67 67 68 68 68 68 68 68 68 68 69 68 68 69 69 69 68
57 57 58 58 58 60 58 58 58 57 57 57 57 57 57 57 57 57 57 54 52 50 49 48 48 48 48 47 48 47 48 48 47 46 45 45 44 43 43 43 43 43 46 52 56 58 59 60 60 61 61 62 62 63 64 64 64 64 65 65 65 65 66 66 66 67 67 68 68 68 68 68 68 68 68 68 67 67 68 68 68 68 68 68 68
57 56 57 57 56 56 56 56 57 57 57 57 57 58 58 58 58 58 58 58 58 55 51 49 49 49 50 50 49 48 47 47 48 48 46 46 44 43 42 47 44 41 47 56 57 57 58 59 60 61 62 62 62 63 64 64 64 65 65 65 65 65 66 66 66 66 66 67 67 66 66 66 67 67 68 68 68 68 68 67 68 67 68 67 66
56 59 59 59 56 56 56 56 57 57 57 58 58 58 58 58 58 59 59 59 58 58 57 58 55 53 55 53 51 48 48 48 49 48 48 47 44 43 42 48 51 52 48 50 54 56 57 59 60 61 62 62 63 64 64 65 65 65 65 64 64 64 64 64 65 65 65 65 65 65 65 65 66 66 67 67 67 67 67 67 67 68 67 67 66
55 55 55 56 57 57 56 56 57 57 57 58 59 59 59 58 58 59 59 59 58 57 57 57 58 55 53 51 50 50 49 48 48 48 48 46 43 43 53 55 54 56 56 54 53 55 57 59 60 61 62 62 63 64 64 64 64 64 64 64 64 64 64 64 65 64 65 65 65 65 65 65 66 66 66 66 66 67 67 67 67 67 68 67 67
54 55 55 56 57 57 57 57 57 58 59 59 59 58 58 58 59 59 59 58 57 57 57 57 56 56 57 59 60 53 50 49 48 48 48 46 42 47 53 56 57 58 60 60 59 58 58 59 61 61 62 62 63 64 64 64 64 64 65 65 65 65 64 64 64 66 65 65 65 65 65 65 66 66 66 66 66 66 67 67 67 67 67 66 66
55 55 56 57 58 57 57 57 59 60 59 59 58 58 58 58 58 58 58 57 57 57 56 55 56 56 56 57 59 57 57 52 50 49 50 43 46 50 52 54 57 57 59 60 61 62 62 62 63 63 63 63 63 64 64 65 65 65 65 65 65 65 65 66 67 66 65 65 66 66 66 66 66 66 66 66 66 66 66 66 67 67 66 65 65
55 58 59 60 59 57 57 58 59 58 58 58 57 58 58 58 58 57 56 56 56 55 55 54 54 56 56 56 55 56 54 53 53 54 55 56 58 57 57 56 56 57 58 59 61 62 62 62 63 63 64 64 64 64 65 65 65 65 64 64 64 64 65 64 64 64 65 65 65 65 65 66 67 67 67 67 66 66 66 66 66 66 65 65 65
57 56 58 59 57 57 58 59 58 57 58 57 56 57 56 57 57 56 55 55 54 54 53 53 54 54 55 54 54 53 52 52 52 54 55 55 57 58 59 60 58 58 59 60 61 61 61 62 62 63 63 64 64 65 65 65 65 65 64 64 64 64 64 64 64 64 64 64 64 64 64 64 65 66 65 65 65 65 64 64 64 64 64 63 63
56 56 59 58 58 57 58 58 57 56 56 56 56 56 56 57 56 56 55 54 53 53 52 52 52 52 53 51 49 48 51 52 53 54 54 56 57 59 60 62 62 62 61 61 61 61 61 62 63 64 64 65 65 65 65 65 65 65 65 64 63 63 64 64 64 64 64 64 64 63 61 61 62 63 63 64 64 64 63 63 63 63 63 63 62
56 56 56 56 57 58 56 56 55 55 55 55 55 55 55 55 55 55 54 53 53 52 51 51 51 51 50 49 47 46 50 52 54 54 55 56 58 59 60 60 61 62 63 63 63 62 62 63 64 64 65 65 65 64 65 65 64 64 64 63 61 63 63 63 64 64 64 64 64 62 59 59 60 62 64 64 64 64 63 63 62 62 63 62 62
59 56 56 57 57 57 56 54 54 54 54 54 54 55 54 54 53 53 52 53 52 52 51 50 50 50 50 50 50 49 51 52 54 55 55 56 57 58 59 60 60 61 63 64 64 65 65 65 64 64 65 65 66 65 65 64 64 64 63 63 62 63 63 63 63 63 63 64 64 61 59 59 59 60 62 63 64 64 64 63 63 63 62 62 61
57 56 57 57 56 56 56 55 54 54 54 54 54 53 53 52 52 52 52 52 51 51 50 50 50 50 50 50 50 50 51 53 53 54 55 57 57 57 58 59 60 61 63 64 64 65 65 64 63 64 65 65 65 65 65 65 64 65 65 64 62 63 64 63 64 64 64 64 63 62 62 62 61 61 62 63 63 63 63 63 63 62 62 62 61
55 55 56 55 56 55 55 55 54 53 53 52 51 51 52 51 51 51 52 51 51 50 50 50 50 50 51 50 51 52 52 52 54 55 55 56 57 57 58 59 60 61 62 64 64 65 65 65 64 64 65 64 64 64 65 65 65 65 66 64 63 64 64 64 64 65 65 64 63 63 63 63 63 63 63 63 63 62 62 62 62 63 62 60 60
55 55 56 55 55 55 55 54 55 53 52 51 50 49 50 49 49 51 51 51 51 51 51 50 51 51 51 51 52 53 53 53 54 55 56 56 56 57 58 59 60 61 61 63 64 65 65 65 65 65 64 63 64 64 64 64 64 64 64 64 64 64 65 65 65 66 66 65 64 63 63 63 63 63 64 63 62 62 62 62 62 62 62 61 61
54 55 55 56 54 55 54 53 52 52 51 51 51 50 49 49 49 51 52 51 51 51 50 51 51 51 52 52 53 52 54 54 54 55 55 56 56 57 58 59 60 60 61 61 61 62 63 64 64 64 63 62 63 63 63 63 63 63 62 62 63 64 65 65 65 66 66 65 64 64 63 63 64 64 63 62 62 62 61 61 62 61 61 61 61
54 55 54 56 54 54 54 53 52 52 51 51 51 51 50 49 49 50 50 50 50 51 51 52 51 52 52 52 53 53 54 54 55 55 55 56 56 57 58 59 59 59 60 60 60 61 61 61 61 62 62 62 63 63 62 61 61 61 60 61 63 64 63 60 66 66 66 65 64 64 64 64 63 62 62 62 62 61 61 61 61 61 61 61 60
54 54 54 54 55 55 54 54 52 50 50 51 50 49 50 49 49 50 50 50 51 51 51 52 51 52 52 52 53 53 54 55 54 55 55 56 56 57 57 58 58 58 58 58 58 58 59 59 60 60 60 60 59 60 60 60 60 60 59 60 62 56 55 57 62 65 61 65 65 64 64 63 62 62 61 61 61 61 61 61 61 60 60 60 60
52 52 53 54 54 54 55 54 51 49 50 50 49 49 50 50 48 50 50 51 51 51 51 52 52 52 52 52 52 52 53 53 54 55 55 55 56 56 56 57 57 57 57 57 57 57 57 56 57 58 59 58 58 58 58 58 59 59 59 59 54 53 55 56 56 56 63 65 64 64 63 63 62 62 62 62 62 61 61 60 60 60 60 60 60
49 49 51 51 52 53 53 51 49 49 48 49 47 47 50 48 48 49 50 51 50 51 51 51 52 52 52 52 52 53 53 53 54 54 55 55 55 55 55 55 56 56 56 56 56 56 56 56 55 56 57 58 58 57 56 55 55 55 54 52 52 52 53 56 62 54 55 58 64 63 63 62 62 62 62 61 61 61 60 60 59 59 60 60 60